Time,TemperatureF,DewpointF,PressureIn,WindDirection,WindDirectionDegrees,WindSpeedMPH,WindSpeedGustMPH,Humidity,HourlyPrecipIn,Conditions,Clouds,dailyrainin,SoftwareType,DateUTC
2013-02-15 00:10:00,19.7,15.0,30.40,SSW,211,0.0,0.0,83,0.00,,,0.00,weatherlink.com 1.10,2013-02-15 07:10:00,
2013-02-15 00:25:00,19.1,15.0,30.40,SSW,211,0.0,0.0,84,0.00,,,0.00,weatherlink.com 1.10,2013-02-15 07:25:00,
2013-02-15 00:40:00,18.5,15.0,30.41,SSW,211,0.0,0.0,85,0.00,,,0.00,weatherlink.com 1.10,2013-02-15 07:40:00,
2013-02-15 00:55:00,17.9,14.0,30.41,SSW,211,0.0,1.0,85,0.00,,,0.00,weatherlink.com 1.10,2013-02-15 07:55:00,
2013-02-15 01:10:00,17.3,14.0,30.42,SSW,211,0.0,0.0,85,0.00,,,0.00,weatherlink.com 1.10,2013-02-15 08:10:00,
2013-02-15 01:25:00,16.6,13.0,30.42,SSW,211,0.0,0.0,85,0.00,,,0.00,weatherlink.com 1.10,2013-02-15 08:25:00,
2013-02-15 01:40:00,16.1,13.0,30.42,SSW,211,0.0,0.0,86,0.00,,,0.00,weatherlink.com 1.10,2013-02-15 08:40:00,
2013-02-15 01:55:00,16.1,13.0,30.43,SSW,211,0.0,0.0,86,0.00,,,0.00,weatherlink.com 1.10,2013-02-15 08:55:00,
2013-02-15 02:10:00,16.4,12.0,30.43,SW,218,1.0,1.0,84,0.00,,,0.00,weatherlink.com 1.10,2013-02-15 09:10:00,
2013-02-15 02:25:00,16.5,13.0,30.43,WSW,250,0.0,1.0,84,0.00,,,0.00,weatherlink.com 1.10,2013-02-15 09:25:00,
2013-02-15 02:40:00,16.9,13.0,30.43,WNW,286,0.0,2.0,83,0.00,,,0.00,weatherlink.com 1.10,2013-02-15 09:40:00,
2013-02-15 02:55:00,17.3,12.0,30.43,WNW,292,0.0,2.0,81,0.00,,,0.00,weatherlink.com 1.10,2013-02-15 09:55:00,
2013-02-15 03:10:00,16.8,12.0,30.42,WNW,292,0.0,0.0,81,0.00,,,0.00,weatherlink.com 1.10,2013-02-15 10:10:00,
2013-02-15 03:25:00,15.8,11.0,30.43,WNW,292,0.0,0.0,82,0.00,,,0.00,weatherlink.com 1.10,2013-02-15 10:25:00,
2013-02-15 03:41:00,15.2,11.0,30.42,WNW,292,0.0,0.0,84,0.00,,,0.00,weatherlink.com 1.10,2013-02-15 10:41:00,
2013-02-15 03:55:00,14.8,11.0,30.43,WNW,292,0.0,0.0,84,0.00,,,0.00,weatherlink.com 1.10,2013-02-15 10:55:00,
2013-02-15 04:11:00,14.1,10.0,30.43,WNW,292,0.0,0.0,85,0.00,,,0.00,weatherlink.com 1.10,2013-02-15 11:11:00,
2013-02-15 04:26:00,13.7,10.0,30.44,WNW,292,0.0,0.0,85,0.00,,,0.00,weatherlink.com 1.10,2013-02-15 11:26:00,
2013-02-15 04:40:00,13.4,10.0,30.43,WNW,292,0.0,0.0,86,0.00,,,0.00,weatherlink.com 1.10,2013-02-15 11:40:00,
2013-02-15 04:55:00,13.5,10.0,30.43,WNW,292,0.0,1.0,87,0.00,,,0.00,weatherlink.com 1.10,2013-02-15 11:55:00,
2013-02-15 05:11:00,13.8,10.0,30.43,WNW,285,0.0,1.0,86,0.00,,,0.00,weatherlink.com 1.10,2013-02-15 12:11:00,
2013-02-15 05:25:00,15.0,11.0,30.43,SSW,193,1.0,4.0,83,0.00,,,0.00,weatherlink.com 1.10,2013-02-15 12:25:00,
2013-02-15 05:40:00,15.5,11.0,30.43,ESE,113,1.0,4.0,82,0.00,,,0.00,weatherlink.com 1.10,2013-02-15 12:40:00,
2013-02-15 05:56:00,15.4,11.0,30.44,South,182,0.0,3.0,82,0.00,,,0.00,weatherlink.com 1.10,2013-02-15 12:56:00,
2013-02-15 06:11:00,15.2,11.0,30.45,South,182,0.0,0.0,82,0.00,,,0.00,weatherlink.com 1.10,2013-02-15 13:11:00,
2013-02-15 06:26:00,15.1,11.0,30.47,South,182,0.0,1.0,83,0.00,,,0.00,weatherlink.com 1.10,2013-02-15 13:26:00,
2013-02-15 06:41:00,15.1,11.0,30.47,South,185,0.0,1.0,83,0.00,,,0.00,weatherlink.com 1.10,2013-02-15 13:41:00,
2013-02-15 06:56:00,15.1,11.0,30.48,South,185,0.0,0.0,84,0.00,,,0.00,weatherlink.com 1.10,2013-02-15 13:56:00,
2013-02-15 07:11:00,15.4,11.0,30.48,South,185,0.0,0.0,84,0.00,,,0.00,weatherlink.com 1.10,2013-02-15 14:11:00,
2013-02-15 07:26:00,15.9,12.0,30.49,South,173,0.0,1.0,84,0.00,,,0.00,weatherlink.com 1.10,2013-02-15 14:26:00,
2013-02-15 07:41:00,16.5,13.0,30.50,South,173,0.0,1.0,84,0.00,,,0.00,weatherlink.com 1.10,2013-02-15 14:41:00,
2013-02-15 07:56:00,17.5,13.0,30.50,South,173,0.0,1.0,81,0.00,,,0.00,weatherlink.com 1.10,2013-02-15 14:56:00,
2013-02-15 08:11:00,18.8,14.0,30.51,South,173,0.0,0.0,80,0.00,,,0.00,weatherlink.com 1.10,2013-02-15 15:11:00,
2013-02-15 08:26:00,19.8,14.0,30.51,SSW,213,2.0,3.0,77,0.00,,,0.00,weatherlink.com 1.10,2013-02-15 15:26:00,
2013-02-15 08:41:00,20.1,14.0,30.51,SSW,213,0.0,2.0,77,0.00,,,0.00,weatherlink.com 1.10,2013-02-15 15:41:00,
2013-02-15 08:56:00,20.6,14.0,30.51,South,185,2.0,3.0,75,0.00,,,0.00,weatherlink.com 1.10,2013-02-15 15:56:00,
2013-02-15 09:11:00,21.3,14.0,30.50,South,190,3.0,4.0,74,0.00,,,0.00,weatherlink.com 1.10,2013-02-15 16:11:00,
2013-02-15 09:26:00,23.4,16.0,30.51,South,169,1.0,3.0,72,0.00,,,0.00,weatherlink.com 1.10,2013-02-15 16:26:00,
2013-02-15 09:41:00,25.6,16.0,30.51,SSW,198,2.0,3.0,67,0.00,,,0.00,weatherlink.com 1.10,2013-02-15 16:41:00,
2013-02-15 09:56:00,27.2,16.0,30.51,South,169,0.0,3.0,64,0.00,,,0.00,weatherlink.com 1.10,2013-02-15 16:56:00,
2013-02-15 10:11:00,28.3,17.0,30.51,SSW,200,3.0,3.0,63,0.00,,,0.00,weatherlink.com 1.10,2013-02-15 17:11:00,
2013-02-15 10:26:00,29.3,17.0,30.50,South,181,2.0,6.0,60,0.00,,,0.00,weatherlink.com 1.10,2013-02-15 17:26:00,
2013-02-15 10:41:00,29.6,16.0,30.50,WSW,249,4.0,6.0,58,0.00,,,0.00,weatherlink.com 1.10,2013-02-15 17:41:00,
2013-02-15 10:57:00,31.1,17.0,30.50,South,186,2.0,4.0,56,0.00,,,0.00,weatherlink.com 1.10,2013-02-15 17:57:00,
2013-02-15 11:11:00,31.9,15.0,30.50,SW,236,1.0,4.0,49,0.00,,,0.00,weatherlink.com 1.10,2013-02-15 18:11:00,
2013-02-15 11:26:00,32.7,15.0,30.49,SSW,198,2.0,3.0,49,0.00,,,0.00,weatherlink.com 1.10,2013-02-15 18:26:00,
2013-02-15 11:42:00,33.6,16.0,30.48,East,80,5.0,6.0,48,0.00,,,0.00,weatherlink.com 1.10,2013-02-15 18:42:00,
2013-02-15 11:57:00,34.1,16.0,30.48,NNE,32,3.0,6.0,48,0.00,,,0.00,weatherlink.com 1.10,2013-02-15 18:57:00,
2013-02-15 12:12:00,35.1,17.0,30.48,ENE,67,0.0,7.0,48,0.00,,,0.00,weatherlink.com 1.10,2013-02-15 19:12:00,
2013-02-15 12:27:00,35.4,17.0,30.48,ENE,60,2.0,7.0,47,0.00,,,0.00,weatherlink.com 1.10,2013-02-15 19:27:00,
2013-02-15 12:42:00,35.6,14.0,30.48,NE,37,3.0,7.0,42,0.00,,,0.00,weatherlink.com 1.10,2013-02-15 19:42:00,
2013-02-15 12:57:00,35.9,15.0,30.48,NNE,28,3.0,7.0,42,0.00,,,0.00,weatherlink.com 1.10,2013-02-15 19:57:00,
2013-02-15 13:12:00,36.1,14.0,30.48,ENE,60,2.0,8.0,41,0.00,,,0.00,weatherlink.com 1.10,2013-02-15 20:12:00,
2013-02-15 13:27:00,36.1,13.0,30.48,NNE,12,3.0,8.0,38,0.00,,,0.00,weatherlink.com 1.10,2013-02-15 20:27:00,
2013-02-15 13:42:00,36.5,12.0,30.47,North,360,1.0,9.0,36,0.00,,,0.00,weatherlink.com 1.10,2013-02-15 20:42:00,
2013-02-15 13:57:00,37.2,11.0,30.48,East,86,3.0,9.0,34,0.00,,,0.00,weatherlink.com 1.10,2013-02-15 20:57:00,
2013-02-15 14:12:00,36.6,11.0,30.48,East,86,2.0,9.0,34,0.00,,,0.00,weatherlink.com 1.10,2013-02-15 21:12:00,
2013-02-15 14:27:00,36.4,11.0,30.48,ESE,108,2.0,8.0,35,0.00,,,0.00,weatherlink.com 1.10,2013-02-15 21:27:00,
2013-02-15 14:42:00,38.0,11.0,30.48,SSE,157,2.0,7.0,33,0.00,,,0.00,weatherlink.com 1.10,2013-02-15 21:42:00,
2013-02-15 14:57:00,38.6,11.0,30.48,ESE,116,3.0,7.0,32,0.00,,,0.00,weatherlink.com 1.10,2013-02-15 21:57:00,
2013-02-15 15:12:00,36.9,11.0,30.47,ESE,108,0.0,8.0,34,0.00,,,0.00,weatherlink.com 1.10,2013-02-15 22:12:00,
2013-02-15 15:27:00,37.2,11.0,30.48,East,87,0.0,2.0,34,0.00,,,0.00,weatherlink.com 1.10,2013-02-15 22:27:00,
2013-02-15 15:42:00,37.9,10.0,30.47,ENE,65,2.0,6.0,32,0.00,,,0.00,weatherlink.com 1.10,2013-02-15 22:42:00,
2013-02-15 15:57:00,37.5,9.0,30.48,NW,314,2.0,7.0,31,0.00,,,0.00,weatherlink.com 1.10,2013-02-15 22:57:00,
2013-02-15 16:12:00,37.3,10.0,30.48,SSE,159,2.0,5.0,32,0.00,,,0.00,weatherlink.com 1.10,2013-02-15 23:12:00,
2013-02-15 16:27:00,36.8,9.0,30.48,ESE,118,2.0,9.0,32,0.00,,,0.00,weatherlink.com 1.10,2013-02-15 23:27:00,
2013-02-15 16:42:00,36.0,10.0,30.49,ESE,119,3.0,9.0,34,0.00,,,0.00,weatherlink.com 1.10,2013-02-15 23:42:00,
2013-02-15 16:57:00,34.7,12.0,30.48,SE,140,4.0,8.0,39,0.00,,,0.00,weatherlink.com 1.10,2013-02-15 23:57:00,
2013-02-15 17:12:00,34.4,12.0,30.48,ENE,59,0.0,7.0,39,0.00,,,0.00,weatherlink.com 1.10,2013-02-16 00:12:00,
2013-02-15 17:27:00,32.8,14.0,30.48,ESE,115,2.0,9.0,47,0.00,,,0.00,weatherlink.com 1.10,2013-02-16 00:27:00,
2013-02-15 17:42:00,31.7,14.0,30.48,SE,139,0.0,4.0,49,0.00,,,0.00,weatherlink.com 1.10,2013-02-16 00:42:00,
2013-02-15 17:57:00,31.0,15.0,30.49,SSE,148,0.0,3.0,51,0.00,,,0.00,weatherlink.com 1.10,2013-02-16 00:57:00,
2013-02-15 18:12:00,30.4,15.0,30.49,SSE,148,1.0,1.0,52,0.00,,,0.00,weatherlink.com 1.10,2013-02-16 01:12:00,
2013-02-15 18:27:00,29.9,15.0,30.49,SSE,148,0.0,1.0,54,0.00,,,0.00,weatherlink.com 1.10,2013-02-16 01:27:00,
2013-02-15 18:42:00,29.4,15.0,30.49,SSE,148,0.0,0.0,55,0.00,,,0.00,weatherlink.com 1.10,2013-02-16 01:42:00,
2013-02-15 18:57:00,29.0,15.0,30.49,SSE,148,0.0,1.0,56,0.00,,,0.00,weatherlink.com 1.10,2013-02-16 01:57:00,
2013-02-15 19:12:00,28.6,15.0,30.49,SSE,148,0.0,1.0,57,0.00,,,0.00,weatherlink.com 1.10,2013-02-16 02:12:00,
2013-02-15 19:27:00,28.0,15.0,30.48,SSE,148,0.0,0.0,58,0.00,,,0.00,weatherlink.com 1.10,2013-02-16 02:27:00,
2013-02-15 19:42:00,27.4,15.0,30.48,SSE,148,0.0,1.0,60,0.00,,,0.00,weatherlink.com 1.10,2013-02-16 02:42:00,
2013-02-15 19:57:00,26.6,15.0,30.48,SSE,148,0.0,0.0,62,0.00,,,0.00,weatherlink.com 1.10,2013-02-16 02:57:00,
2013-02-15 20:12:00,26.0,15.0,30.47,SSE,148,0.0,0.0,64,0.00,,,0.00,weatherlink.com 1.10,2013-02-16 03:12:00,
2013-02-15 20:27:00,25.6,16.0,30.47,SSE,150,2.0,2.0,66,0.00,,,0.00,weatherlink.com 1.10,2013-02-16 03:27:00,
2013-02-15 20:42:00,26.3,16.0,30.46,SSW,207,1.0,2.0,65,0.00,,,0.00,weatherlink.com 1.10,2013-02-16 03:42:00,
2013-02-15 21:12:00,25.9,16.0,30.45,SSW,197,0.0,2.0,66,0.00,,,0.00,weatherlink.com 1.10,2013-02-16 04:12:00,
2013-02-15 21:27:00,25.5,16.0,30.45,SSW,205,0.0,1.0,66,0.00,,,0.00,weatherlink.com 1.10,2013-02-16 04:27:00,
2013-02-15 21:42:00,25.2,16.0,30.45,SSW,202,0.0,2.0,67,0.00,,,0.00,weatherlink.com 1.10,2013-02-16 04:42:00,
2013-02-15 21:58:00,24.8,15.0,30.44,SSW,202,1.0,2.0,67,0.00,,,0.00,weatherlink.com 1.10,2013-02-16 04:58:00,
2013-02-15 22:12:00,24.8,15.0,30.44,SW,215,0.0,3.0,67,0.00,,,0.00,weatherlink.com 1.10,2013-02-16 05:12:00,
2013-02-15 22:27:00,25.0,15.0,30.43,SSW,213,2.0,3.0,65,0.00,,,0.00,weatherlink.com 1.10,2013-02-16 05:27:00,
2013-02-15 22:42:00,25.1,14.0,30.43,SSW,211,1.0,4.0,64,0.00,,,0.00,weatherlink.com 1.10,2013-02-16 05:42:00,
2013-02-15 22:57:00,25.0,14.0,30.43,SSW,213,1.0,3.0,63,0.00,,,0.00,weatherlink.com 1.10,2013-02-16 05:57:00,
2013-02-15 23:12:00,25.1,14.0,30.43,SW,215,0.0,2.0,62,0.00,,,0.00,weatherlink.com 1.10,2013-02-16 06:12:00,
2013-02-15 23:27:00,25.8,13.0,30.42,SW,229,2.0,4.0,59,0.00,,,0.00,weatherlink.com 1.10,2013-02-16 06:27:00,
2013-02-15 23:42:00,26.2,13.0,30.41,WSW,237,4.0,6.0,57,0.00,,,0.00,weatherlink.com 1.10,2013-02-16 06:42:00,
2013-02-15 23:57:00,26.1,13.0,30.40,SW,225,1.0,3.0,57,0.00,,,0.00,weatherlink.com 1.10,2013-02-16 06:57:00,